Погода в Родничках

Россия / Волгоградская область     50°07′47″N   41°40′34″E
темп.,
°C
ветер,
м/с
пор.,
м/с
влажн.,
%
обл.,
%
осадки,
мм/ч
давл.,
гПа
погр.,
м
18 апреля, вс
вс1800:00+7зсз36735 0.0 1020110
03:00+5зсз22785 0.0 102027
06:00+5з227673 0.0 102025
09:00+11зюз2252100 0.0 1020833
12:00+14зюз124389 0.0 10191576
15:00+15ююз123890 0.0 10182007
18:00+14юв014492 0.0 1017660
21:00+11ссв3558100 0.0 1017151
19 апреля, пн
пн1900:00+11всв2363100 0.0 101764
03:00+10всв1164100 0.0 101718
06:00+9в016916 0.0 101610
09:00+13св1056100 0.1 1016770
12:00+15зсз1240100 0.1 10152024
15:00+16в2238100 0.1 10141831
18:00+14в334924 0.0 1015310
21:00+11в236978 0.0 101648
20 апреля, вт
вт2000:00+9вюв3790100 0.3 1016195
03:00+8в489429 0.4 1016219
06:00+8в51193100 0.0 1015364
09:00+11вюв81376100 0.0 1014842
12:00+9в101787100 0.6 1011799
15:00+8вюв122193100 4.3 1008766
18:00+10вюв132385100 3.1 10061140
21:00+13юв11199494 5.7 10051037
21 апреля, ср
ср2100:00+12ююв9159073 0.4 1005721
03:00+10ю8158253 1.3 1007849
06:00+9ю91582100 0.2 1008932
09:00+9ю81386100 0.3 1010896
12:00+8з6108498 0.8 1013609
15:00+12юз696292 0.9 10151536
18:00+10зюз58719 0.2 1018584
21:00+7зюз22809 0.2 102028
22 апреля, чт
чт2200:00+7зюз248198 0.0 102196
03:00+5зюз35864 0.0 1022101
06:00+4з36847 0.0 1024139
09:00+9зсз34585 0.0 1024853
12:00+12з344967 0.0 10241677
15:00+13зсз3444100 0.0 10241832
18:00+12сз235467 0.0 1025221
21:00+8зсз11585 0.0 102510